User: anonymous   Login
Location: Hawks Ness
(60.2333°N, 1.1667°W)
Time: 21:40:19
(UTC+00:00)
Language:

SL-14 R/B - Orbit

View from above orbital plane
View from above orbital plane
View from above satellite
View from above satellite

Ground track
Ground track

The orbit data is extracted from the following two-line orbital elements,

1 33505U 09003B   19346.19131996 -.00000336  00000-0 -22477-4 0  9990
2 33505  82.3922  58.8173 0025147 302.4230  57.4567 15.09866808597870
Epoch (UTC): 12 December 2019 04:35:30
Eccentricity: 0.0025147
inclination: 82.3922°
perigee height: 519 km
apogee height: 554 km
right ascension of ascending node: 58.8173°
argument of perigee: 302.4230°
revolutions per day: 15.09866808
mean anomaly at epoch: 57.4567°
orbit number at epoch: 59787

The dashed part of the orbit path shows where the satellite is in the earth's shadow,  

DLR